Wind_Speed
11 11 11 11 11 12 12 12 12 12 12 12 12 11 11 11 11 12 12 12 13 13 13 14 15 15 16 16 16 17 17 17 17 16 17 18 18 18 19 18 18 19 19
13 13 13 13 13 13 13 13 13 14 14 14 14 13 13 14 13 13 14 14 14 15 15 16 17 18 18 18 18 19 19 20 20 19 19 19 20 20 20 20 19 20 20
15 15 15 15 15 15 15 15 15 16 16 16 16 16 16 16 16 16 16 16 16 17 18 18 19 19 20 20 21 21 21 21 21 22 21 21 22 22 21 21 21 21 22
17 17 17 18 18 18 18 18 17 18 18 18 18 18 18 18 18 18 18 18 19 19 20 20 20 21 22 22 23 23 23 23 23 23 23 23 23 23 23 23 23 23 23
19 19 19 20 20 20 20 19 19 19 19 19 19 20 20 20 20 20 21 21 21 22 22 22 23 23 23 24 24 24 24 25 25 24 24 24 24 24 24 24 24 25 25
21 21 21 21 22 22 21 22 21 21 21 21 22 22 22 22 22 22 23 23 24 24 24 24 25 25 25 25 25 25 25 25 26 26 26 26 26 26 26 26 26 26 26
23 23 23 23 23 23 23 23 24 24 25 24 24 24 24 23 24 24 25 26 26 26 26 26 26 26 26 26 26 26 26 26 26 26 26 27 26 27 27 28 28 28 28
23 23 23 23 24 24 25 25 26 26 26 25 25 25 26 26 26 27 28 28 29 28 28 28 27 27 27 28 28 28 28 28 28 28 28 28 29 29 29 29 30 30 30
25 24 24 25 25 25 25 26 26 27 27 27 27 27 28 28 28 29 30 30 30 30 29 28 28 29 29 30 29 29 29 30 30 30 30 30 31 31 31 31 32 33 32
27 27 27 27 27 27 27 27 28 29 28 28 28 29 29 29 30 31 31 31 31 31 30 30 30 30 31 31 31 31 31 32 32 32 32 33 32 32 33 34 33 33 33
29 30 29 28 29 29 29 30 30 30 30 30 30 30 31 31 31 31 32 32 32 32 31 32 32 32 32 32 32 32 33 34 34 35 35 35 34 35 35 35 35 35 35
30 30 30 30 31 31 31 30 30 30 30 31 32 32 32 32 32 32 32 33 33 33 33 33 33 33 33 33 33 34 35 36 36 36 36 36 36 36 35 35 36 36 36
31 31 32 32 33 32 31 31 31 31 32 32 33 33 33 33 33 33 33 33 34 34 35 35 35 35 35 35 35 35 36 37 37 37 38 37 37 36 36 37 37 37 37
32 32 32 33 33 32 32 32 33 32 32 33 33 33 34 33 33 33 34 34 35 35 35 35 35 35 35 35 36 36 37 37 38 38 38 38 38 38 38 38 38 37 37
32 32 32 32 32 33 34 33 33 33 32 33 33 33 33 33 33 33 34 35 35 35 35 35 35 36 36 36 37 38 38 38 38 38 39 38 38 38 38 38 39 39 39
31 32 32 33 33 33 34 34 34 34 34 33 33 33 33 33 34 34 35 36 36 36 36 35 35 36 37 37 37 37 38 38 39 38 38 38 38 38 38 38 38 39 39
31 31 33 33 34 34 34 34 34 35 34 32 32 33 33 34 34 34 35 36 37 37 36 36 36 37 37 37 38 38 38 38 39 39 40 39 39 39 39 38 39 39 40
31 32 32 33 33 34 34 34 33 34 34 34 33 33 34 34 35 35 35 36 37 37 36 36 37 37 38 38 38 38 38 39 39 39 40 40 40 40 40 40 40 39 39
32 32 31 32 33 34 33 34 34 34 34 33 33 34 34 35 35 36 36 37 36 36 36 36 37 38 38 38 38 38 39 40 39 39 39 40 40 40 40 40 40 40 40
31 31 32 33 34 34 33 32 32 32 33 34 34 33 33 34 35 36 36 36 36 36 37 37 37 37 38 38 38 39 39 39 39 39 39 40 39 39 40 40 40 39 39
30 30 31 31 31 32 32 32 31 31 31 32 32 33 34 34 35 36 35 36 36 37 37 38 37 37 37 38 39 39 39 39 38 38 38 39 39 39 39 39 39 39 40
29 29 29 28 28 28 28 29 29 30 31 32 33 32 33 34 35 35 36 36 36 37 37 37 37 38 38 39 40 39 39 38 38 38 39 39 39 39 39 39 39 39 39
28 29 29 28 28 28 28 28 29 30 31 32 32 33 33 34 35 36 36 36 37 37 37 37 37 38 39 39 39 38 37 38 38 38 39 39 39 39 39 39 39 39 39
27 27 28 28 28 28 28 29 30 31 32 32 32 33 34 35 36 36 36 36 36 37 37 37 38 38 38 39 38 38 38 38 38 38 38 39 39 39 39 39 39 39 39
26 26 27 27 27 28 28 29 30 31 32 32 33 34 36 36 37 37 37 37 37 37 38 38 39 38 38 38 38 38 38 39 38 38 38 38 38 37 38 38 38 38 39
25 25 26 27 27 28 29 29 30 31 32 33 34 35 35 36 36 37 37 37 38 38 38 39 39 39 38 38 38 38 38 38 38 38 37 37 37 37 38 38 39 39 39
Wind_Direction
300 301 300 298 297 298 299 301 303 303 302 301 303 304 302 298 297 296 294 298 299 298 296 294 293 292 292 292 292 291 292 293 292 291 291 291 292 291 291 291 292 292 292
293 295 294 292 293 295 294 295 297 300 299 299 299 299 298 297 298 298 296 297 296 295 295 294 290 290 289 290 293 294 293 292 291 290 289 288 289 290 289 288 289 290 291
287 289 290 289 289 289 289 289 290 294 295 295 296 294 293 293 294 297 297 297 295 294 294 293 290 288 289 290 291 290 291 290 289 289 288 287 287 286 285 286 288 288 289
283 285 288 288 287 286 287 285 286 289 290 290 291 290 290 289 292 294 294 295 296 296 296 296 293 291 290 289 288 289 290 291 290 289 288 287 286 284 284 284 286 287 287
282 284 285 285 284 283 284 286 288 288 287 286 288 289 288 288 290 292 291 292 292 294 294 295 294 293 291 290 290 289 289 290 290 289 289 288 287 284 282 282 283 284 286
281 281 282 282 281 280 282 283 284 285 285 285 286 288 289 289 291 291 291 291 291 291 290 291 291 291 291 290 290 289 288 288 289 288 289 289 288 284 283 283 283 284 286
280 282 281 279 280 280 282 282 281 282 284 284 284 285 287 289 290 289 289 290 290 290 289 288 289 289 287 288 288 288 288 289 288 288 288 290 289 287 286 285 285 285 285
278 280 279 279 279 279 280 282 282 281 282 284 285 286 287 288 288 287 288 289 289 288 289 288 287 288 288 287 287 287 288 289 287 287 288 288 287 286 286 285 285 285 286
276 277 277 277 278 280 281 281 281 280 280 282 284 286 286 286 287 287 286 287 289 290 290 291 290 287 287 286 286 287 287 288 288 287 288 288 288 286 285 286 286 285 285
276 276 276 276 278 279 280 280 280 280 280 280 282 284 285 285 285 286 287 288 289 289 289 289 289 288 287 284 283 285 286 287 287 286 287 287 287 287 286 286 286 284 284
275 275 275 275 276 277 279 279 279 280 279 280 281 283 284 285 285 286 288 289 289 289 289 289 288 287 287 285 284 284 286 286 287 286 286 285 285 286 285 284 283 283 283
274 274 274 275 275 276 277 278 279 278 278 280 281 282 283 285 285 286 288 289 289 290 290 289 289 287 286 286 285 285 286 287 286 285 285 285 284 284 283 283 282 281 281
274 274 274 274 274 275 276 277 277 278 279 281 281 281 283 284 285 286 287 289 290 290 289 288 288 287 287 287 287 287 287 287 287 286 285 284 284 283 282 282 282 281 281
274 274 273 272 272 274 277 277 277 277 279 281 282 283 283 284 285 287 289 289 290 290 289 287 287 287 287 287 286 286 286 286 286 286 286 284 284 284 283 283 283 283 283
277 276 274 273 274 277 278 277 276 277 279 279 280 281 282 284 287 287 288 290 290 290 289 287 287 286 287 287 287 286 286 287 287 286 287 286 285 285 284 283 283 284 285
277 278 277 276 276 278 279 279 278 279 281 281 279 281 283 285 286 287 287 289 289 289 287 286 287 287 287 288 288 287 286 285 286 286 287 287 287 286 284 283 283 283 285
278 279 280 280 279 280 280 279 279 279 278 278 279 281 283 286 287 288 288 287 287 287 287 287 287 287 288 289 288 287 286 285 286 286 287 287 287 287 285 285 285 285 285
279 280 280 280 281 281 280 282 282 280 278 279 279 280 282 284 287 288 287 287 288 289 288 289 289 288 289 289 289 288 287 287 287 286 286 286 285 284 285 286 286 286 286
280 279 280 282 283 282 280 280 281 281 280 280 281 282 283 284 287 288 288 287 288 288 288 289 290 290 290 290 290 290 290 289 288 287 287 286 285 284 284 285 286 286 286
281 281 281 283 284 284 282 281 283 283 282 283 283 284 285 286 288 290 290 289 288 288 289 289 290 290 290 290 291 291 290 290 289 289 289 288 286 285 284 285 286 286 285
283 284 285 286 286 286 286 285 284 284 284 285 285 286 287 288 288 288 289 290 290 290 290 290 290 290 290 290 290 290 291 291 292 291 289 288 287 287 286 285 286 286 285
283 286 287 288 289 288 288 288 285 284 286 287 288 290 292 292 290 289 289 289 290 291 291 292 291 291 291 290 290 291 291 291 292 291 290 290 288 287 286 285 285 285 285
285 285 285 287 287 287 287 287 286 287 288 290 291 292 293 293 292 291 290 290 290 289 290 291 291 291 292 292 292 293 293 293 292 292 291 290 289 288 286 285 284 283 284
288 288 288 288 288 287 288 289 289 290 290 291 292 294 294 294 294 294 293 292 292 292 291 291 291 293 293 293 293 293 292 292 292 291 291 290 289 288 287 286 285 284 284
288 289 290 291 290 290 291 291 292 292 292 293 294 295 295 295 295 295 295 294 294 294 293 293 294 294 292 291 292 293 292 292 292 291 291 291 290 289 289 288 287 286 285
291 291 291 292 292 292 292 292 293 293 293 293 294 295 296 297 296 296 296 295 294 294 294 294 294 294 294 294 295 295 294 294 294 293 292 291 291 290 290 289 288 286 284
Height
5889 5888 5888 5887 5887 5886 5886 5886 5885 5884 5884 5883 5882 5881 5880 5880 5879 5879 5878 5877 5877 5876 5875 5875 5874 5873 5872 5871 5871 5870 5870 5869 5868 5867 5866 5865 5864 5863 5862 5861 5860 5859 5859
5886 5886 5885 5885 5884 5884 5884 5883 5883 5882 5881 5880 5879 5879 5878 5877 5876 5876 5875 5874 5873 5873 5872 5871 5870 5869 5868 5867 5866 5866 5865 5864 5863 5862 5861 5860 5859 5858 5857 5856 5855 5854 5853
5883 5883 5882 5882 5882 5881 5881 5880 5880 5879 5878 5877 5876 5876 5875 5874 5873 5872 5871 5870 5870 5869 5867 5866 5865 5864 5863 5862 5861 5860 5859 5858 5857 5856 5856 5854 5853 5852 5851 5850 5849 5848 5847
5879 5879 5879 5878 5878 5877 5877 5876 5875 5875 5874 5873 5873 5872 5871 5870 5869 5868 5867 5866 5865 5864 5863 5861 5860 5859 5858 5857 5856 5855 5854 5852 5851 5850 5849 5848 5847 5845 5844 5844 5843 5842 5841
5875 5875 5874 5874 5873 5873 5872 5872 5871 5870 5869 5869 5868 5867 5867 5866 5865 5864 5863 5862 5861 5859 5858 5856 5855 5853 5852 5851 5850 5848 5847 5846 5844 5843 5842 5841 5839 5838 5837 5837 5836 5835 5834
5870 5870 5869 5868 5868 5868 5867 5867 5866 5865 5864 5864 5863 5862 5861 5860 5860 5859 5857 5856 5855 5853 5852 5850 5849 5847 5846 5844 5843 5841 5840 5839 5837 5836 5834 5833 5832 5831 5830 5829 5828 5827 5827
5864 5864 5863 5863 5862 5861 5861 5861 5860 5860 5859 5858 5858 5857 5856 5855 5854 5852 5851 5849 5848 5847 5845 5843 5842 5840 5839 5837 5836 5834 5833 5831 5830 5829 5827 5826 5824 5823 5822 5821 5820 5819 5818
5858 5858 5857 5857 5856 5856 5855 5854 5854 5853 5853 5852 5851 5851 5850 5848 5847 5845 5844 5842 5841 5839 5837 5836 5834 5833 5831 5830 5828 5827 5825 5824 5822 5820 5819 5818 5816 5815 5814 5813 5811 5810 5809
5852 5852 5851 5850 5850 5849 5849 5848 5847 5847 5846 5845 5844 5843 5842 5841 5839 5838 5836 5835 5833 5832 5830 5828 5826 5824 5823 5821 5820 5818 5817 5816 5813 5812 5811 5809 5807 5805 5804 5803 5802 5800 5800
5845 5844 5844 5843 5843 5842 5842 5841 5840 5839 5838 5837 5836 5835 5834 5833 5831 5830 5828 5827 5825 5823 5821 5819 5817 5815 5814 5812 5811 5810 5808 5807 5805 5803 5802 5800 5798 5796 5794 5793 5792 5790 5789
5837 5836 5836 5836 5835 5835 5834 5833 5832 5830 5829 5829 5828 5827 5825 5824 5822 5821 5819 5817 5816 5814 5812 5810 5808 5806 5804 5802 5801 5800 5798 5796 5795 5793 5792 5790 5788 5787 5785 5783 5781 5780 5779
5828 5828 5827 5827 5826 5826 5825 5824 5823 5822 5821 5819 5818 5817 5816 5814 5813 5811 5810 5808 5806 5804 5802 5800 5799 5797 5795 5793 5791 5789 5788 5786 5784 5782 5781 5779 5778 5776 5774 5772 5771 5769 5768
5819 5818 5818 5817 5817 5817 5816 5814 5813 5812 5811 5810 5809 5808 5806 5805 5803 5802 5800 5798 5796 5794 5793 5791 5789 5787 5785 5783 5781 5779 5777 5775 5773 5771 5769 5768 5766 5764 5762 5761 5759 5758 5757
5810 5809 5808 5808 5807 5807 5805 5804 5803 5802 5801 5800 5799 5798 5797 5795 5794 5792 5791 5789 5787 5785 5783 5781 5779 5776 5774 5772 5771 5768 5766 5764 5762 5760 5758 5756 5754 5753 5751 5749 5748 5746 5745
5800 5799 5799 5798 5798 5797 5796 5794 5793 5792 5790 5789 5789 5788 5787 5786 5784 5782 5781 5779 5777 5775 5772 5770 5768 5766 5764 5762 5760 5757 5755 5753 5750 5748 5746 5744 5742 5741 5739 5737 5736 5734 5732
5792 5791 5790 5789 5788 5788 5787 5785 5783 5783 5781 5780 5778 5778 5777 5776 5774 5772 5770 5769 5766 5764 5761 5759 5757 5755 5753 5751 5748 5746 5744 5741 5739 5736 5734 5732 5730 5729 5727 5725 5724 5722 5721
5783 5782 5781 5779 5779 5777 5776 5774 5773 5772 5771 5770 5768 5768 5767 5766 5764 5762 5760 5758 5755 5752 5750 5748 5746 5744 5742 5740 5737 5734 5732 5730 5727 5724 5722 5720 5718 5716 5715 5713 5712 5710 5708
5774 5773 5772 5770 5769 5768 5766 5764 5763 5762 5761 5760 5759 5758 5757 5755 5754 5752 5749 5747 5745 5742 5739 5737 5735 5733 5731 5728 5725 5723 5720 5718 5715 5713 5710 5708 5706 5704 5703 5701 5700 5698 5696
5766 5764 5763 5762 5760 5758 5757 5756 5754 5752 5751 5750 5749 5748 5747 5745 5743 5741 5738 5736 5734 5732 5729 5727 5724 5722 5720 5717 5714 5711 5708 5706 5703 5700 5698 5696 5694 5692 5690 5689 5687 5685 5683
5757 5756 5754 5753 5751 5749 5747 5746 5745 5743 5741 5740 5739 5738 5737 5735 5733 5731 5728 5725 5723 5721 5719 5716 5714 5711 5709 5706 5703 5700 5697 5694 5691 5688 5686 5683 5681 5679 5678 5676 5674 5672 5671
5749 5747 5746 5744 5742 5740 5739 5737 5736 5734 5733 5732 5730 5729 5727 5725 5723 5721 5718 5716 5713 5710 5708 5705 5703 5700 5697 5695 5692 5689 5685 5682 5679 5677 5674 5672 5669 5667 5665 5663 5662 5660 5658
5741 5739 5738 5736 5734 5732 5731 5729 5728 5727 5725 5723 5722 5719 5717 5715 5713 5710 5708 5706 5703 5700 5697 5695 5692 5689 5686 5683 5681 5677 5674 5671 5668 5665 5662 5660 5657 5655 5653 5651 5649 5647 5646
5733 5731 5730 5728 5727 5725 5724 5722 5720 5719 5717 5715 5713 5711 5709 5706 5703 5700 5698 5695 5692 5689 5687 5684 5681 5679 5675 5671 5668 5666 5663 5659 5656 5654 5651 5648 5645 5643 5640 5639 5637 5635 5633
5725 5724 5722 5720 5719 5717 5716 5714 5712 5711 5708 5706 5704 5701 5699 5696 5693 5690 5687 5684 5681 5679 5676 5673 5670 5667 5664 5660 5657 5654 5651 5648 5644 5641 5639 5636 5633 5631 5628 5626 5624 5622 5621
5718 5717 5715 5713 5712 5710 5708 5706 5705 5702 5700 5698 5695 5692 5689 5686 5683 5680 5677 5673 5671 5668 5665 5662 5659 5656 5652 5649 5646 5642 5639 5636 5632 5629 5626 5623 5621 5618 5616 5613 5611 5609 5607
5712 5710 5708 5706 5704 5702 5700 5698 5696 5694 5691 5689 5686 5683 5680 5676 5673 5670 5666 5663 5660 5657 5654 5650 5647 5643 5640 5637 5633 5630 5627 5624 5620 5617 5614 5611 5608 5606 5603 5600 5598 5596 5594